カタログに戻る

FENGYUN 1C DEB

LostPO
NORAD 35170·DEBRIS·🇨🇳 China

打ち上げ May 10, 1999 から Taiyuan Satellite Launch Center

Loading…

次のパス (今後24時間)

TLE

古いSource: Space-Track

元期: Sep 22, 2022, 04:06 UTC

1 35170U 99025DNA 22265.17107112  .00002140  00000-0  12776-2 0  9990
2 35170  99.8551  45.1504 0104602 291.9255  67.0817 14.05803684739928

AllMySatでFENGYUN 1C DEBをリアルタイム追跡

Download on the App Store